Wind_Gust
12 10 11 12 16 16 14 13 14 17 16 13 18 28 16 25 25 25 18 20 19 16 13 15 9 17 22 25 26 25 25 21 19 19 17 15 15 16 14 17 20 18 19 15 17 15 18 16 16 14 15 14 11 9 10 9 9 10 11 10 10 7 6 8 7 8 9 11 10 7 5 7 10 10 8 7 7 11 8 7 7 8 9 6 6 6
14 14 16 18 19 17 17 18 17 18 17 22 21 23 27 33 23 24 20 18 18 15 10 9 14 16 24 24 25 23 22 23 22 22 19 18 16 16 15 16 18 16 11 17 16 14 15 15 15 13 12 12 13 11 10 11 12 10 9 11 9 9 7 8 8 7 6 6 6 6 8 7 7 9 7 7 8 8 8 7 7 7 7 6 7 6
14 21 17 17 18 16 17 20 26 23 15 19 17 18 21 25 31 26 19 15 20 14 16 18 16 20 22 26 23 23 26 29 25 26 26 23 18 17 16 16 16 13 14 15 16 17 16 17 18 14 11 13 14 13 13 10 9 9 9 11 8 9 8 8 6 5 5 5 5 5 6 7 10 13 8 8 8 9 8 8 6 7 5 6 7 12
17 23 23 22 17 18 22 21 19 19 17 13 15 14 15 20 16 15 19 17 16 20 13 15 14 14 14 21 23 25 27 24 22 25 22 21 21 17 19 18 17 16 18 16 18 18 17 17 15 13 12 12 11 11 11 11 11 11 10 9 10 10 8 8 8 6 6 4 3 3 7 7 5 6 6 5 3 3 4 8 9 6 9 7 8 7
22 25 18 13 19 21 19 17 18 11 16 22 17 13 16 14 11 13 19 16 16 17 13 9 12 9 8 19 23 21 20 19 17 17 17 19 18 16 15 17 19 21 20 17 15 16 16 16 17 17 14 13 12 12 13 12 12 12 11 11 11 10 9 9 8 7 5 3 3 5 4 4 6 5 4 6 7 10 11 5 5 10 6 5 8 9
20 30 27 16 18 15 11 14 26 23 17 23 20 17 17 18 16 14 15 13 13 13 10 15 11 12 12 16 25 22 19 18 15 17 18 18 14 13 15 17 15 17 19 21 21 22 21 19 15 13 14 15 14 13 12 12 11 9 11 10 10 9 9 9 8 7 6 5 4 4 4 6 5 7 7 10 8 7 4 7 5 3 5 6 6 5
25 29 18 13 22 18 27 29 24 25 18 9 14 16 17 15 14 12 15 8 6 16 14 8 12 13 9 14 16 18 20 21 14 21 19 17 16 16 17 17 17 18 17 10 14 15 15 14 16 14 15 15 14 13 13 11 11 10 11 10 10 11 10 9 8 7 7 5 6 8 9 9 10 9 8 6 6 7 6 5 4 4 5 7 7 10
16 23 22 18 29 26 24 25 27 24 15 15 13 15 7 10 13 14 17 11 10 11 10 10 10 10 10 17 13 14 20 17 22 22 17 16 16 17 16 18 16 20 17 18 17 18 18 19 20 20 17 15 17 13 14 12 10 11 11 10 10 9 10 8 8 7 8 7 6 5 6 6 7 8 9 6 8 7 6 7 7 6 6 10 7 6
29 26 21 20 26 26 24 29 24 24 17 13 13 18 24 21 21 24 13 16 8 8 10 13 8 9 13 14 15 18 20 20 18 21 22 28 25 18 22 19 18 19 18 18 18 17 18 19 17 15 16 15 14 13 14 13 13 12 11 11 9 10 9 8 7 9 8 7 7 8 7 7 7 7 9 7 5 7 6 6 6 4 7 6 8 3
31 28 26 18 19 21 21 23 24 23 15 14 18 22 25 26 15 18 15 15 10 7 12 12 14 11 13 13 14 17 19 19 20 20 20 27 26 22 22 19 20 20 18 21 20 21 20 18 17 16 15 14 14 13 14 12 11 12 10 10 10 9 9 9 8 9 8 7 7 6 6 7 9 8 10 6 6 6 6 8 8 8 8 8 5 4
25 24 31 24 22 21 16 19 27 21 18 21 31 32 26 27 17 18 13 12 10 6 16 18 20 16 11 11 16 18 27 22 14 19 17 25 25 23 20 23 21 21 18 20 18 21 18 17 17 16 16 14 13 12 14 13 13 14 12 11 11 11 10 9 9 8 9 8 7 8 7 6 8 7 6 7 10 8 4 8 8 8 9 8 9 6
23 21 26 25 19 20 16 22 25 20 18 18 19 22 19 17 17 11 9 11 8 14 18 22 23 16 12 12 12 18 23 24 21 20 21 25 26 25 21 22 22 22 19 22 21 20 17 14 15 16 15 14 13 13 14 15 14 15 15 12 11 10 9 10 9 9 10 9 9 8 7 8 8 9 9 7 9 8 9 8 11 8 7 8 9 6
19 22 18 19 19 17 16 15 22 27 28 25 23 18 16 14 19 9 12 6 12 16 14 22 18 12 17 19 26 23 22 22 20 23 24 26 25 21 24 22 22 20 20 23 22 17 17 19 18 15 15 14 13 15 14 15 15 14 14 14 12 11 9 10 9 10 10 9 9 9 9 8 8 9 9 8 8 7 7 8 8 6 8 7 7 9
17 16 21 20 17 21 20 25 18 19 23 20 19 12 13 13 12 10 11 10 10 14 18 22 32 21 16 20 24 20 18 21 21 22 23 28 22 24 24 23 21 19 22 23 21 21 18 18 18 17 15 15 14 14 17 17 14 13 14 13 13 13 10 9 10 10 10 11 9 8 9 10 10 9 9 10 9 8 7 7 6 7 9 9 9 9
16 18 23 21 22 23 25 25 28 17 19 18 19 19 19 16 16 11 11 11 12 17 20 28 20 14 8 14 22 20 21 15 14 19 19 22 22 24 23 21 20 17 20 25 22 22 20 18 17 17 15 16 16 15 16 16 16 13 14 14 13 13 13 11 11 10 11 11 9 8 9 10 9 10 10 11 9 9 8 6 6 7 6 7 8 10
18 19 19 23 14 26 22 32 39 23 15 11 14 20 13 15 25 19 15 14 19 16 18 26 18 17 13 18 19 15 16 18 17 21 18 17 19 19 24 17 19 23 24 23 21 22 17 16 16 15 14 15 15 15 14 14 15 13 14 14 14 14 14 13 11 12 13 12 10 8 9 10 9 9 9 9 8 8 7 8 8 7 6 8 8 8
17 21 18 22 19 23 21 30 30 26 21 18 14 13 21 18 18 17 15 12 8 13 12 22 12 23 14 17 15 18 19 16 17 18 18 21 17 19 18 21 23 23 23 20 22 20 18 17 15 17 16 16 15 16 17 16 16 15 14 14 13 13 13 13 13 14 12 11 9 10 10 9 9 9 9 10 8 8 8 8 8 8 9 7 6 8
18 13 13 21 24 19 22 29 24 25 24 29 21 26 23 17 22 17 11 8 8 13 17 19 12 11 16 18 18 17 18 15 19 17 19 17 17 20 21 20 21 22 21 23 22 20 21 19 19 16 17 17 18 18 16 16 14 15 16 16 16 14 14 14 13 13 12 12 11 10 11 10 11 11 10 8 9 8 7 7 8 7 9 8 10 9
21 19 16 19 19 16 25 27 22 21 29 26 25 19 22 15 15 10 12 7 9 9 13 19 14 8 11 13 20 16 20 14 18 18 20 20 18 19 17 20 19 20 23 23 19 21 18 18 18 17 17 17 17 18 18 18 17 14 13 16 17 18 18 17 16 13 13 12 12 12 13 12 12 11 10 9 9 8 9 9 10 11 11 10 8 8
19 18 13 20 25 21 24 23 18 19 25 21 19 20 17 14 11 12 22 11 14 8 7 19 19 17 16 20 18 17 18 18 18 19 19 19 18 19 18 19 19 21 21 19 20 21 19 19 18 19 18 18 18 17 17 16 15 15 15 15 14 14 12 12 13 13 13 15 12 12 10 10 11 11 11 11 9 9 10 11 9 9 9 12 11 10
17 16 17 16 17 24 22 24 22 22 22 23 21 18 21 16 12 15 10 14 12 10 11 14 12 17 18 22 21 20 20 20 21 23 20 19 17 18 18 19 21 23 19 21 22 22 22 18 19 19 18 19 20 17 17 17 17 17 15 15 16 16 15 15 15 14 15 13 13 12 12 13 11 12 11 9 10 10 10 9 10 10 10 8 10 10
19 20 20 18 22 23 22 28 23 30 28 22 21 19 18 14 11 8 14 24 25 10 11 15 16 17 19 17 24 23 20 21 22 23 20 20 21 20 19 18 21 22 20 22 21 21 21 17 18 19 19 15 20 18 19 19 16 16 16 18 17 17 17 17 16 16 15 13 13 13 14 13 11 12 10 10 10 11 12 10 10 9 7 7 9 8
24 17 19 17 26 28 24 30 26 29 26 23 24 20 16 14 19 13 10 11 13 13 12 19 15 14 16 17 19 21 19 23 21 23 22 20 21 20 21 21 21 22 21 22 19 20 19 17 18 20 18 18 21 20 20 18 18 18 18 17 15 19 18 18 19 16 14 14 13 14 14 12 11 11 10 10 10 10 11 11 10 8 9 10 9 8
19 29 21 19 19 23 23 20 17 22 21 20 21 16 16 17 18 17 17 12 13 17 14 17 12 15 14 20 21 19 20 22 23 22 24 19 20 18 19 20 19 16 16 19 20 18 18 16 15 15 17 18 19 17 18 18 17 16 17 17 18 18 19 16 14 16 15 13 14 13 11 12 10 10 10 10 11 11 11 11 10 8 9 10 9 10
30 22 22 14 19 22 16 22 23 18 24 19 18 17 17 17 22 17 15 9 7 13 13 13 12 13 16 13 17 15 18 21 19 18 23 19 16 18 19 17 18 17 18 19 19 19 17 14 14 17 17 18 19 18 16 18 16 16 16 16 16 17 18 16 13 16 15 14 14 11 12 11 10 10 10 12 11 12 12 11 11 9 10 9 9 10
24 13 22 18 16 15 18 18 22 20 20 17 17 20 23 18 21 13 11 15 8 9 15 13 11 14 12 11 13 17 22 22 17 18 20 22 19 18 16 15 15 17 20 19 17 16 17 18 17 18 16 17 18 19 17 16 16 16 15 17 16 16 16 16 11 15 14 13 13 12 11 11 10 11 12 13 12 13 12 12 10 11 11 10 11 9
19 13 17 18 23 22 20 22 16 15 13 22 19 22 27 25 20 16 14 12 13 10 12 14 19 11 13 15 15 17 21 22 20 18 21 19 16 17 15 17 15 17 19 19 18 18 11 7 12 14 13 14 15 17 16 17 17 16 15 15 15 13 15 14 12 13 14 13 12 11 11 11 12 13 12 13 13 12 11 11 11 11 12 11 12 12
16 21 21 21 24 25 22 20 15 18 18 18 19 21 30 24 20 16 17 19 14 13 10 11 16 19 13 13 15 17 19 19 22 21 20 20 21 22 18 16 15 13 12 14 12 13 12 11 11 16 14 11 14 15 23 20 17 17 16 17 15 15 12 11 11 13 12 12 11 11 13 13 13 13 13 12 12 12 13 12 11 12 11 10 12 14
20 15 19 21 23 26 26 25 23 19 18 20 19 19 20 24 25 21 18 22 14 16 19 11 13 17 20 20 19 24 26 25 25 25 26 23 21 18 18 17 17 15 15 17 14 13 12 10 9 12 12 11 12 15 15 15 14 12 13 9 10 11 13 11 12 12 12 12 12 12 12 12 11 13 13 13 12 12 12 12 12 11 11 11 13 13
29 20 17 21 25 27 27 27 24 24 21 19 20 20 19 20 20 25 25 17 18 12 15 16 15 17 21 18 17 23 24 28 26 23 20 22 22 22 21 18 16 17 17 17 15 15 12 12 11 12 12 11 12 12 12 10 11 13 12 11 10 8 10 11 10 11 10 11 9 9 9 9 7 9 10 11 12 13 13 12 12 12 12 13 14 13
24 23 26 23 24 28 27 27 26 25 23 25 19 19 17 17 22 26 24 18 15 18 19 16 13 14 14 13 17 13 16 17 23 26 25 23 22 22 21 19 17 18 19 19 16 14 11 11 12 11 12 10 9 9 10 10 10 12 11 13 12 9 9 11 9 7 7 8 7 8 8 9 10 9 9 11 11 10 10 12 12 12 13 13 13 13
21 20 20 19 20 22 24 24 24 25 27 26 23 22 21 19 14 19 22 16 16 17 16 14 14 17 13 16 15 12 12 26 27 25 24 24 24 24 23 22 21 19 20 21 20 17 15 17 13 12 11 10 9 10 10 9 10 12 11 11 12 13 11 10 7 7 6 10 11 12 11 10 12 11 12 13 13 12 11 11 10 11 12 12 12 13
21 25 27 21 20 16 21 27 27 24 24 26 23 20 20 18 18 17 17 17 21 18 20 16 21 20 16 15 23 17 19 25 25 25 25 24 25 27 26 25 24 22 22 21 20 16 17 18 15 13 11 12 12 13 11 12 13 12 10 12 8 10 9 9 11 14 13 11 11 12 13 13 13 11 12 11 11 10 10 9 11 11 11 13 11 9
22 20 23 19 20 16 20 23 19 20 20 20 14 15 21 23 18 20 18 18 19 21 22 25 25 18 16 15 27 20 21 27 30 27 30 30 26 23 25 24 24 24 22 20 21 19 20 16 13 12 11 11 13 15 15 13 15 12 11 12 12 15 14 15 13 13 12 12 11 10 10 9 10 12 12 12 12 11 11 10 10 9 9 10 9 9
26 25 19 16 15 19 19 16 19 20 23 14 21 23 22 23 23 21 16 18 17 15 18 16 18 19 19 24 26 27 29 27 26 27 24 29 29 28 25 22 25 25 23 20 18 20 17 15 14 14 14 15 16 13 13 12 11 14 16 17 18 16 17 15 14 12 10 11 10 10 11 12 12 12 11 11 10 9 9 9 10 9 9 9 10 11
24 21 19 15 16 17 18 16 22 22 18 20 20 23 30 26 22 23 15 17 19 23 18 17 19 19 18 19 19 24 26 23 19 23 25 22 26 27 24 24 26 26 24 22 23 20 19 18 18 17 15 13 14 14 15 15 16 19 17 17 17 15 14 14 13 12 12 13 12 13 12 13 12 12 12 12 12 12 12 11 11 12 11 11 12 10
24 24 16 19 12 17 15 17 23 20 23 18 17 24 32 27 31 20 12 12 19 28 32 29 16 14 18 17 17 13 14 18 17 15 18 21 17 19 28 26 26 26 24 22 24 20 17 18 18 16 13 11 14 18 17 17 19 18 16 16 16 17 15 15 15 13 12 12 12 12 12 12 13 11 11 13 13 12 11 12 12 11 11 12 13 12
28 23 15 15 19 15 13 18 21 22 23 17 14 29 30 26 22 17 12 18 14 28 27 32 29 22 21 15 17 17 19 20 14 17 15 20 26 27 25 25 24 24 24 24 22 20 17 15 16 17 21 20 18 16 17 16 18 18 17 15 15 16 15 15 15 14 13 12 12 12 12 13 14 13 14 14 14 13 12 12 11 11 11 11 11 14
29 22 19 20 20 11 11 16 22 19 19 14 27 28 33 29 26 14 15 22 14 30 30 28 30 27 18 22 20 19 20 17 16 19 14 22 24 29 27 25 25 24 23 23 25 23 20 20 20 20 21 22 20 17 18 19 18 20 17 15 15 15 16 14 13 14 14 13 14 15 14 12 13 13 13 14 13 12 11 10 11 13 13 13 12 13
25 24 18 17 18 16 11 15 21 25 23 20 29 31 34 27 22 12 18 18 21 37 37 35 28 28 25 17 22 23 24 20 18 19 20 27 27 23 29 27 25 24 23 23 21 22 22 21 24 22 21 20 16 16 17 17 20 18 16 14 14 16 14 11 12 14 13 13 12 12 13 12 13 12 11 12 12 10 11 12 13 14 14 15 15 15
15 15 12 21 18 19 14 20 24 27 28 26 28 32 31 25 17 21 22 18 36 38 40 38 34 27 26 20 17 25 23 26 25 24 25 27 29 25 24 23 24 26 27 25 24 19 22 21 22 22 19 17 16 15 16 18 21 18 15 15 17 14 10 9 11 12 13 13 13 13 13 13 11 12 12 11 6 9 12 14 15 16 17 15 15 15
15 12 12 18 20 24 26 23 23 22 18 32 38 34 27 20 23 20 30 35 32 32 37 33 29 26 24 20 20 21 14 26 25 25 27 26 27 22 23 24 25 23 23 20 20 22 23 23 21 20 18 15 17 16 16 19 21 15 16 17 15 9 10 12 11 12 13 13 15 12 12 12 13 11 11 10 12 14 16 16 17 17 15 15 15 16
12 13 11 14 20 23 22 19 18 20 15 33 34 30 30 26 21 32 40 36 29 31 30 33 27 26 28 31 28 22 26 28 28 27 26 26 29 27 26 27 28 27 25 24 22 21 26 24 22 20 17 18 16 16 16 21 19 16 15 15 8 11 12 12 11 15 14 13 14 12 12 11 11 11 15 14 12 13 15 15 16 17 18 17 17 17
12 12 13 13 15 14 20 26 21 15 28 27 29 18 30 32 34 36 37 35 39 31 29 32 30 26 29 27 23 23 27 26 23 25 24 24 24 24 25 24 22 22 22 21 22 22 23 24 21 20 16 17 15 14 15 21 19 15 14 10 9 10 11 12 13 13 13 11 11 12 14 14 13 14 12 13 15 14 14 16 16 17 18 17 18 18
10 11 9 12 18 13 17 22 23 27 22 23 21 25 31 39 37 34 34 36 29 34 30 29 28 35 33 28 25 27 28 29 30 30 30 25 26 28 27 24 24 25 25 24 22 21 21 25 21 19 17 16 15 15 16 16 19 14 11 7 9 12 13 11 11 11 11 13 13 11 16 12 12 13 13 15 14 14 15 15 16 18 18 19 20 20
14 13 12 13 15 21 25 20 16 23 29 33 26 23 30 35 36 36 33 33 35 35 36 30 27 26 31 26 26 23 27 24 26 23 25 26 27 24 23 23 23 23 24 24 22 22 22 21 20 20 18 15 14 16 14 13 15 15 8 10 11 11 11 10 10 11 13 14 12 12 16 14 12 14 15 14 13 13 14 13 14 16 18 20 21 21
10 18 19 17 19 20 22 20 29 27 30 21 23 28 26 27 26 31 33 32 36 38 40 38 27 28 25 29 29 26 30 31 28 26 26 27 27 25 26 26 24 24 26 25 22 23 23 20 21 19 18 15 10 14 13 13 12 12 10 12 11 10 10 10 10 11 11 12 12 11 12 12 14 16 14 12 13 14 13 13 13 14 18 21 22 22
10 20 17 15 22 20 25 29 23 29 27 15 23 25 31 34 40 36 36 32 34 35 26 27 29 33 29 29 31 29 28 28 32 29 30 28 26 27 27 27 26 24 21 22 20 22 20 21 20 19 17 16 12 12 13 13 13 12 13 11 11 10 11 9 10 12 13 13 11 12 14 15 11 14 13 13 13 13 13 14 15 14 17 20 23 24
13 14 12 12 20 28 26 18 30 36 20 17 28 25 31 30 36 37 39 38 35 33 30 29 30 26 30 33 32 30 31 29 31 30 31 30 28 27 26 26 25 24 23 22 19 20 22 20 21 18 19 15 13 14 14 12 12 12 12 12 12 11 10 10 10 11 12 12 13 12 14 14 14 14 14 13 13 13 13 15 16 16 16 15 23 18
11 12 8 10 16 19 16 19 26 28 28 34 28 30 34 32 28 31 35 38 37 30 27 30 33 37 32 30 30 32 33 32 29 28 31 30 28 26 26 26 24 23 22 20 20 20 20 19 21 19 17 14 14 14 13 11 11 12 14 14 13 11 11 11 11 11 11 14 12 12 13 13 13 13 15 15 16 17 17 11 14 14 17 16 19 23
16 12 7 11 12 24 23 23 20 19 22 21 27 30 29 28 26 27 30 35 36 25 23 26 32 34 31 36 35 31 30 31 31 31 29 29 28 25 25 26 25 24 23 21 22 19 20 18 17 17 15 13 13 13 12 11 11 12 13 13 13 13 14 14 12 12 14 12 12 12 13 13 14 14 16 17 18 17 18 19 15 17 25 26 26 27
Wind_Speed
3 3 4 6 7 8 7 8 8 6 8 4 2 2 5 4 5 5 5 6 4 3 7 8 5 7 12 15 16 16 13 12 10 10 10 10 9 10 9 10 12 12 12 8 8 10 10 9 8 6 5 6 5 5 6 6 6 6 7 5 4 4 3 4 4 3 1 2 3 2 2 4 5 4 2 3 3 3 3 4 4 4 4 4 4 4
5 2 7 9 10 10 8 7 6 3 4 5 4 4 5 5 6 4 3 4 5 6 5 4 5 9 13 14 15 13 12 14 14 13 12 12 10 9 10 11 12 10 3 6 6 6 8 7 7 5 6 7 7 5 6 7 7 6 5 6 6 3 4 4 5 4 2 2 2 2 3 1 2 3 3 3 3 4 4 4 4 4 4 4 4 3
2 7 9 9 8 6 4 4 3 4 2 1 4 5 3 5 5 8 7 6 4 8 6 6 7 8 12 14 13 15 16 16 15 16 16 14 12 9 8 8 8 5 6 7 9 10 9 10 9 7 6 7 9 9 8 7 6 6 5 5 5 4 4 4 3 3 2 3 2 2 2 2 2 3 2 5 4 4 4 4 4 4 3 4 4 2
2 6 13 10 4 6 4 4 5 3 2 3 0 1 5 3 1 5 7 3 4 7 6 7 8 4 8 11 14 15 16 13 15 16 15 13 13 11 11 10 10 9 9 10 11 11 10 11 9 6 6 7 5 7 5 6 7 6 6 5 5 6 5 4 4 3 4 3 2 2 3 3 2 1 1 0 1 1 2 4 3 2 4 3 4 4
10 9 4 3 5 6 5 5 5 3 3 1 4 3 4 3 4 7 5 5 2 9 2 3 0 4 2 10 8 12 13 10 10 12 11 11 12 10 9 8 12 13 12 11 9 9 10 10 10 11 9 6 7 7 7 7 7 5 7 7 7 6 6 5 5 4 3 1 1 0 0 1 1 1 1 1 3 3 3 2 2 6 4 3 4 4
9 11 2 1 2 5 5 4 7 6 4 2 5 9 9 4 4 2 6 6 1 5 2 6 1 3 4 5 15 12 9 11 7 10 12 12 9 6 9 10 8 10 12 14 14 14 14 13 9 6 7 8 7 8 8 7 7 6 7 6 6 6 5 6 5 5 4 3 3 1 1 2 1 3 2 3 5 4 3 4 3 2 3 4 4 4
7 2 6 5 4 3 5 6 5 8 6 2 5 8 11 6 3 3 4 3 2 6 4 3 6 4 3 4 7 10 12 14 4 11 11 11 9 9 11 10 10 11 8 6 8 10 10 8 9 8 9 9 9 8 7 6 6 6 7 6 7 7 6 6 5 5 4 3 2 4 4 4 4 3 4 3 4 3 3 2 3 3 2 3 4 3
2 2 4 4 5 4 2 4 4 9 6 3 5 3 3 4 4 1 4 2 1 3 4 2 4 3 2 6 4 9 13 10 8 11 10 10 9 10 10 11 11 11 11 10 11 12 12 12 13 13 11 9 10 8 6 6 6 7 7 6 7 6 6 5 5 4 5 5 4 4 4 4 4 4 4 3 4 3 2 3 4 4 4 3 2 3
6 4 6 5 4 4 7 7 5 9 7 5 3 4 3 6 3 2 5 3 0 2 3 4 2 1 3 6 0 7 9 7 11 11 11 10 9 10 11 12 12 13 12 11 11 11 12 12 12 10 10 9 7 7 8 7 7 7 6 7 5 6 6 5 5 5 5 4 4 5 4 4 4 4 5 3 3 3 3 4 4 3 4 3 2 1
3 10 12 10 7 7 7 4 9 11 5 4 5 9 6 4 3 4 3 3 3 2 5 4 1 2 5 5 2 1 6 10 11 12 12 12 11 11 12 11 11 10 9 10 13 13 13 12 11 10 8 7 8 8 7 7 6 6 5 6 6 6 6 5 5 6 5 5 4 4 4 4 5 3 4 2 3 3 4 5 5 4 4 4 3 1
3 3 7 6 9 9 8 6 10 9 7 3 4 4 4 6 4 2 4 2 3 1 7 7 5 6 3 5 8 7 10 12 7 4 5 7 8 9 11 12 11 11 10 9 9 10 12 11 10 8 9 9 6 5 7 6 6 6 6 6 7 7 6 5 6 5 6 5 5 5 5 4 5 5 4 4 5 4 3 5 5 5 6 4 5 3
2 2 4 4 6 2 4 2 3 7 4 5 1 2 3 3 7 4 3 4 2 5 8 6 8 6 5 4 5 8 3 11 13 12 11 9 11 11 9 11 12 12 10 8 8 8 6 5 5 6 7 7 7 5 6 6 6 6 6 6 7 6 6 6 6 6 6 6 6 5 5 5 5 4 4 4 5 5 4 4 5 5 4 5 6 4
4 5 3 4 4 10 3 4 1 3 3 5 4 5 6 1 4 2 2 1 2 5 5 1 6 2 6 9 6 4 6 9 13 13 14 13 12 10 10 12 12 11 10 10 9 8 8 10 10 9 8 6 7 8 8 8 7 6 7 7 8 7 6 7 6 7 7 6 6 6 6 5 4 4 5 5 5 5 4 5 5 4 5 5 3 5
4 5 5 1 1 4 8 7 2 1 1 5 5 4 6 2 1 2 4 1 3 7 6 3 7 2 4 8 10 10 10 11 14 12 13 14 14 13 11 11 11 11 11 11 10 10 10 10 10 10 10 9 8 8 9 8 7 7 7 7 8 9 6 6 6 7 7 7 6 5 6 6 5 5 5 6 5 5 5 5 4 5 6 6 6 5
1 2 4 5 3 6 5 9 13 8 9 8 3 6 6 7 4 3 3 4 5 5 4 1 5 4 1 4 4 13 13 9 9 11 11 13 14 13 11 11 11 11 9 9 10 11 11 11 11 10 9 9 9 9 9 8 8 8 7 7 8 7 6 6 7 6 7 7 6 5 6 6 5 6 6 6 6 5 5 4 4 4 4 5 5 6
9 6 7 14 7 11 12 7 7 8 5 0 1 3 4 5 6 3 5 4 3 1 1 2 4 4 4 4 3 3 3 4 7 6 6 9 8 9 8 9 10 11 11 10 10 10 10 10 10 9 8 9 9 10 9 8 8 8 8 8 9 10 8 8 7 7 8 8 6 6 6 7 6 5 5 6 4 5 4 5 5 5 4 5 5 5
2 2 2 5 4 13 12 10 7 12 4 3 3 2 8 4 5 1 1 1 3 4 3 2 4 4 5 6 4 5 5 5 6 7 9 10 10 10 9 8 10 11 11 10 10 10 10 8 8 9 9 8 8 9 10 10 10 10 9 9 9 8 7 8 9 9 8 7 6 7 6 6 6 6 6 6 5 5 5 5 5 5 6 4 4 5
7 4 6 4 3 7 7 12 10 6 8 6 2 9 2 4 5 3 2 2 1 2 3 0 5 2 2 1 3 4 6 4 6 9 11 9 9 11 9 8 11 12 12 13 12 11 12 11 11 9 9 9 10 11 10 10 9 9 9 10 10 9 9 9 8 8 8 8 7 7 7 7 7 7 6 5 6 5 4 4 4 4 5 5 6 4
6 3 5 2 4 6 5 9 4 2 15 11 9 6 6 0 1 1 2 1 0 1 2 2 3 3 5 4 2 5 8 5 6 6 8 8 9 10 8 9 9 10 9 9 9 9 9 10 10 10 10 11 10 10 11 10 10 8 7 9 10 12 11 11 9 8 7 7 7 7 8 8 7 7 6 6 5 4 4 5 5 5 6 5 5 4
5 6 4 1 7 6 2 4 8 5 6 0 6 4 2 5 4 4 7 3 4 3 0 4 1 4 5 7 9 9 10 9 9 8 10 10 12 10 9 9 11 11 11 11 10 10 10 10 11 11 11 11 11 10 9 10 8 9 9 8 9 8 8 7 8 8 8 8 7 7 6 6 7 7 7 7 6 6 6 6 5 5 5 7 6 5
3 3 5 1 3 6 4 4 8 10 8 6 3 2 1 1 3 5 0 3 3 3 4 3 1 6 8 7 12 13 11 13 13 11 9 10 11 11 12 11 11 11 11 10 10 10 10 10 10 9 9 10 10 10 9 9 10 10 8 9 10 10 10 9 10 9 9 7 8 8 8 8 7 8 7 6 6 6 6 5 5 5 6 4 5 5
3 3 7 3 6 5 7 8 9 15 15 11 9 8 9 6 3 3 4 2 2 1 2 4 5 7 8 5 14 13 12 12 11 13 10 11 12 11 10 10 12 12 11 11 11 10 10 9 9 9 8 7 8 8 9 9 9 9 10 10 10 9 9 10 10 10 9 8 8 9 9 8 7 7 6 6 6 6 6 6 6 6 4 5 6 4
1 3 7 5 11 14 13 15 15 15 15 12 12 9 8 4 5 4 2 5 1 3 6 3 1 6 6 8 11 13 11 12 12 14 11 11 13 13 13 13 13 14 13 12 11 11 10 9 10 10 11 11 11 12 11 10 10 10 11 10 9 10 11 11 11 9 8 8 8 9 9 7 6 5 5 6 6 6 7 7 6 5 6 6 6 5
14 1 6 3 1 2 13 12 7 11 11 7 7 3 6 6 9 8 7 5 5 1 1 1 1 5 3 5 11 12 13 12 11 13 14 11 12 11 11 11 12 9 9 9 9 9 9 8 8 6 8 9 9 8 10 11 10 9 9 10 10 11 12 10 8 8 8 8 9 8 7 7 6 5 6 6 7 7 7 7 6 5 5 6 5 6
4 4 5 3 2 1 3 7 3 3 9 5 5 5 5 5 4 3 4 2 1 3 6 6 3 3 2 1 6 9 9 11 12 11 14 12 8 8 8 11 11 11 9 8 9 9 8 8 8 9 10 11 11 10 9 10 10 9 10 9 10 11 10 9 7 7 8 8 9 7 7 6 5 6 6 7 7 8 7 7 7 5 6 6 5 5
2 4 2 5 6 5 3 3 7 4 10 4 3 10 6 7 5 1 4 1 2 3 4 3 2 7 4 1 5 10 13 13 11 9 5 11 12 9 8 8 10 10 10 11 10 8 10 11 10 9 9 10 10 11 10 10 10 10 9 11 10 10 8 8 6 7 7 7 7 6 7 6 5 7 8 8 7 8 8 7 6 6 6 4 6 5
3 3 4 2 10 11 10 10 8 5 3 5 4 8 3 1 6 4 5 2 4 2 4 6 8 4 1 3 5 8 12 13 8 5 7 3 4 7 9 9 9 11 11 12 12 10 7 5 8 9 9 9 9 9 9 10 10 9 9 10 9 8 9 8 7 7 7 7 7 5 6 6 7 8 8 7 8 7 6 6 7 6 7 6 8 7
4 6 7 10 9 7 11 8 8 5 2 3 6 9 15 10 4 6 5 7 4 4 5 3 5 9 7 5 7 10 12 10 10 9 7 6 9 11 10 8 7 7 8 8 7 8 8 7 8 10 9 7 7 8 8 9 10 10 10 10 9 8 7 5 6 6 6 5 5 5 6 6 7 7 7 6 5 5 6 6 6 7 7 5 7 8
7 3 8 13 15 13 9 4 8 7 3 4 5 4 7 13 9 8 9 13 8 7 9 6 6 8 8 9 13 15 15 15 15 15 14 14 11 8 8 8 9 10 9 10 10 8 8 7 6 7 8 6 8 10 9 9 8 7 7 5 5 6 6 5 5 5 4 4 4 6 6 5 4 4 4 4 5 6 7 7 7 6 6 6 7 7
7 4 8 12 11 12 6 7 6 11 8 11 9 14 13 8 9 12 13 6 10 7 8 9 10 11 9 8 11 14 15 17 15 12 11 12 13 12 11 9 9 10 11 11 10 10 8 7 5 6 7 6 6 6 6 7 7 6 5 3 3 3 3 5 4 4 4 4 4 4 4 4 4 5 5 6 7 8 7 6 6 6 6 7 7 6
6 7 16 12 10 10 8 10 2 2 6 2 2 1 1 7 12 15 13 6 5 2 1 8 8 7 6 7 9 5 5 9 10 13 15 14 13 13 12 11 11 12 13 12 9 8 7 6 6 5 6 5 5 5 4 3 3 4 4 5 5 5 4 5 5 4 3 3 4 4 4 3 3 3 3 4 5 5 5 5 5 4 4 5 4 5
6 7 10 6 9 10 7 11 8 3 6 4 4 7 6 5 5 7 6 7 8 9 7 8 7 7 6 4 6 5 5 14 16 15 13 11 14 15 14 14 13 13 13 13 10 9 8 7 8 8 7 6 5 5 5 5 5 7 6 6 6 5 5 6 5 4 4 6 7 8 7 6 6 7 6 6 5 4 4 3 4 4 4 5 6 7
5 8 9 9 8 6 8 7 12 3 5 9 4 3 4 5 10 7 3 7 12 11 9 8 11 10 9 9 13 7 12 15 16 15 14 14 15 17 17 16 15 15 15 14 12 11 10 10 8 9 7 5 6 7 5 7 8 7 6 7 5 5 5 6 8 9 8 5 7 7 6 7 7 6 5 4 4 4 4 5 5 5 5 5 5 5
7 7 7 3 3 7 11 10 5 2 3 3 4 1 4 7 10 3 1 2 2 8 7 13 13 8 6 9 17 13 13 15 17 16 18 17 15 15 16 16 16 15 13 12 13 12 10 8 7 7 7 7 8 8 6 7 9 6 6 7 8 10 9 9 8 7 6 7 6 5 5 5 5 5 4 4 4 5 5 5 5 4 4 4 5 5
11 9 6 2 3 8 5 8 1 3 4 5 2 5 11 7 8 12 6 2 5 2 5 6 3 7 13 16 16 17 19 18 17 17 15 18 18 17 16 14 14 13 13 12 10 10 10 9 9 9 9 9 10 8 8 7 7 9 10 10 10 8 9 8 8 7 6 7 5 5 5 5 4 4 4 4 4 4 4 4 4 4 4 4 4 5
6 5 6 4 3 2 3 2 1 3 4 5 5 6 16 9 11 16 9 3 11 17 10 7 9 10 11 12 12 15 16 15 12 14 16 15 17 17 14 13 14 14 14 13 14 12 12 12 12 11 10 8 8 6 8 9 10 12 9 9 10 9 9 8 8 7 7 7 6 6 6 6 6 6 6 5 5 5 5 5 4 5 5 5 6 6
4 5 1 7 2 4 2 0 5 5 5 9 9 11 13 5 8 3 2 4 13 15 17 18 13 5 8 10 9 6 6 9 7 7 7 13 11 11 17 16 16 16 14 10 12 11 9 10 12 10 8 6 9 11 10 9 10 10 10 10 9 9 9 9 9 7 7 8 7 6 5 5 5 5 6 5 6 6 6 6 7 6 5 7 8 7
1 1 1 3 5 1 4 4 5 2 2 3 3 11 6 6 11 7 6 4 7 18 18 17 19 16 6 2 5 8 9 10 6 9 6 5 5 6 6 8 8 8 10 11 9 10 9 8 9 8 11 11 10 10 10 10 11 11 11 9 8 10 9 9 7 5 5 6 5 5 5 5 5 7 7 7 6 6 6 6 6 6 5 5 6 7
4 2 1 2 5 5 0 2 3 3 2 4 15 14 17 11 9 4 2 2 3 18 18 18 20 18 9 3 7 7 10 8 8 10 8 7 6 8 10 8 10 11 12 13 15 13 11 10 11 12 13 13 11 8 10 11 12 12 10 9 8 8 9 7 6 6 6 5 4 5 6 6 7 7 6 6 6 5 5 6 5 5 5 6 6 7
4 3 6 6 4 4 3 3 3 2 0 10 14 13 16 15 8 2 1 3 11 22 17 16 17 18 17 10 5 9 11 10 9 10 5 7 9 10 15 15 15 14 13 12 11 12 13 13 15 14 13 13 9 8 11 11 12 12 10 9 8 10 8 5 4 4 5 5 6 6 8 6 7 6 5 5 5 5 4 4 6 8 8 9 8 8
3 2 3 2 4 8 3 2 0 1 2 9 15 14 18 7 7 6 2 7 16 19 17 14 15 13 15 13 7 7 11 10 12 10 10 11 14 10 9 11 14 16 17 16 15 13 12 11 13 13 12 10 9 8 9 11 13 11 9 8 8 7 4 4 5 6 6 6 7 8 7 6 5 6 5 4 4 5 7 8 9 9 10 9 8 9
1 1 1 1 2 3 5 2 3 2 1 10 14 12 13 7 6 1 6 9 13 16 16 13 14 14 15 10 7 11 6 6 13 13 12 14 15 14 14 16 15 13 11 12 13 14 13 13 13 13 11 8 8 8 9 12 13 9 8 9 9 5 4 6 6 6 7 7 7 6 6 6 6 5 5 5 7 9 9 8 9 9 8 7 8 9
1 1 2 1 3 2 2 1 2 1 3 13 16 6 14 8 1 5 9 11 7 12 13 15 11 14 14 14 10 11 4 10 14 14 14 15 18 17 17 18 19 17 16 15 13 13 16 14 13 12 10 7 7 7 9 13 12 10 9 10 5 4 5 6 7 7 7 7 6 5 5 5 5 6 6 7 7 7 8 7 9 8 9 9 9 9
0 1 0 1 2 2 3 1 2 1 5 8 9 4 4 2 2 4 6 10 10 9 13 13 13 12 13 13 9 8 5 10 7 13 13 12 15 15 14 15 14 14 13 12 13 13 16 14 12 11 8 7 7 8 9 13 12 9 9 6 3 5 6 7 7 7 7 5 5 5 5 4 5 6 6 6 6 8 8 8 7 7 7 7 7 7
2 1 1 1 2 2 2 3 3 2 2 3 4 2 2 2 2 3 5 6 9 11 11 11 15 16 14 15 7 10 4 1 12 14 18 15 17 17 17 15 16 16 16 16 14 13 14 15 14 12 10 9 9 9 9 10 12 10 8 3 5 6 7 6 7 7 5 4 4 5 4 5 5 6 6 6 6 7 6 6 6 7 6 6 6 6
1 2 2 0 2 4 4 8 4 2 4 6 3 1 6 6 3 4 6 8 7 8 9 12 15 15 13 13 3 9 9 11 5 4 12 16 15 13 14 14 14 14 14 14 13 14 14 13 13 13 12 9 9 10 9 8 10 10 5 4 6 6 6 6 6 5 4 3 4 4 4 5 6 5 5 6 6 6 4 4 5 6 6 6 6 5
1 0 1 1 2 4 5 4 11 13 8 9 5 2 5 5 6 5 6 7 7 8 9 13 13 14 9 12 1 10 10 11 12 8 7 14 15 15 15 16 14 15 16 15 13 15 14 13 13 12 12 10 7 9 8 8 8 7 6 7 6 6 6 6 5 4 4 3 3 4 4 5 4 4 5 5 4 5 4 5 4 4 4 3 4 4
4 3 7 2 0 2 5 6 9 7 9 10 1 7 8 11 13 7 5 4 6 6 8 13 13 14 8 8 3 11 11 11 8 10 8 4 13 14 15 16 16 13 11 13 12 14 13 13 13 12 12 10 8 8 8 8 7 7 7 6 6 6 6 6 4 4 4 4 3 4 5 5 5 5 4 3 3 5 6 4 3 3 2 2 3 4
5 5 3 1 3 5 7 7 7 11 2 1 6 8 5 7 11 13 10 9 9 11 12 16 13 10 8 8 3 12 13 12 13 6 11 7 6 11 13 14 13 14 13 13 11 13 13 13 13 12 12 10 7 8 8 7 6 7 7 6 6 6 6 5 4 4 5 5 5 6 4 5 4 3 3 3 4 3 3 3 3 3 3 1 1 1
3 4 2 4 5 4 4 7 5 8 9 12 11 9 11 10 10 11 10 10 11 12 13 16 19 12 6 6 6 9 14 14 13 13 3 8 1 9 12 13 13 13 12 11 11 13 13 13 14 13 11 8 7 8 8 7 6 5 5 5 5 5 5 4 4 5 6 5 6 5 5 4 4 3 3 4 4 5 4 3 1 0 2 2 5 6
4 3 1 2 2 4 7 6 4 6 8 6 10 11 9 9 7 9 9 11 11 10 10 11 15 13 9 10 7 3 11 13 15 15 11 3 0 4 10 13 14 13 12 12 14 13 13 12 12 12 10 8 7 8 8 7 6 6 5 5 5 5 4 4 4 6 6 5 4 3 3 4 4 4 4 3 3 4 2 3 6 8 8 5 5 5
Wind_Direction
141 139 182 201 210 206 210 186 199 209 181 176 148 164 216 226 271 263 238 246 200 182 214 204 171 173 182 186 196 199 194 207 207 204 207 212 209 209 194 195 198 199 206 197 172 169 171 171 174 162 156 161 158 161 157 156 168 170 173 157 174 204 173 172 199 231 205 275 308 296 262 253 257 238 194 172 209 181 198 193 197 187 202 211 224 239
81 225 254 222 207 196 206 196 200 177 184 166 190 202 241 192 251 248 257 229 180 177 257 239 162 188 189 192 197 196 192 206 206 205 209 211 210 206 189 190 196 202 189 157 137 161 160 166 169 160 156 154 153 188 167 165 176 181 171 169 183 191 186 188 189 198 168 181 187 189 224 211 288 261 157 176 228 205 215 208 201 200 202 216 230 256
169 208 245 240 211 202 223 216 203 185 152 116 180 223 286 273 238 272 256 234 208 190 235 191 200 202 197 194 196 194 198 206 203 199 200 200 205 205 200 184 184 159 171 165 163 162 167 169 172 168 172 176 168 172 178 171 168 175 178 187 181 185 187 210 208 174 216 233 222 153 215 172 247 264 222 167 199 207 215 222 215 212 212 221 256 245
264 268 242 251 167 183 218 221 220 222 94 130 81 99 244 237 70 317 296 305 173 183 206 200 189 238 193 198 197 203 202 207 207 204 201 197 196 195 194 180 170 168 162 166 167 170 171 173 173 171 177 180 164 167 175 175 167 174 180 190 186 193 195 213 220 201 222 228 228 235 188 221 177 218 333 335 349 311 278 269 264 290 248 226 243 247
205 226 196 144 176 183 199 216 200 179 250 268 187 183 242 225 202 186 258 298 236 221 97 110 113 324 97 175 209 218 212 215 208 202 201 204 204 191 183 166 167 168 168 165 168 168 169 173 181 182 181 170 173 178 179 184 178 175 180 189 186 189 198 206 221 225 192 164 79 3 355 1 354 358 23 3 310 297 263 237 258 243 243 219 234 244
262 252 183 277 246 178 196 202 207 154 202 291 241 213 228 229 218 236 275 264 157 247 302 138 10 282 272 171 201 202 200 219 206 186 196 197 193 161 169 175 178 171 171 167 173 175 179 180 178 176 176 179 181 183 192 183 181 169 179 182 187 189 196 203 216 217 200 191 176 186 253 293 243 247 291 251 238 245 210 207 239 261 218 212 221 238
227 185 162 191 208 203 172 187 209 155 181 173 262 211 226 224 238 274 282 72 189 183 262 135 145 258 319 272 197 194 194 206 196 190 191 189 179 176 175 171 171 172 183 178 166 168 170 180 175 182 185 187 182 196 184 181 183 178 177 180 181 185 197 203 209 202 194 175 179 193 201 208 204 206 256 230 233 215 242 227 222 213 259 223 230 255
208 197 156 162 179 192 208 212 228 157 129 227 242 158 155 184 188 166 82 101 199 237 307 53 122 163 279 282 220 189 182 190 185 193 191 187 179 180 174 173 171 176 178 174 176 178 178 177 178 185 190 186 191 182 176 182 182 185 187 181 186 189 192 200 183 192 186 191 198 209 221 219 221 206 241 259 276 243 232 202 235 241 261 271 254 276
170 188 172 171 156 162 201 212 178 144 150 213 285 139 119 131 133 114 80 58 247 92 265 325 40 50 258 267 324 156 166 195 188 190 194 189 182 178 174 174 175 178 179 173 173 179 180 182 190 181 185 193 178 175 178 185 187 190 191 188 184 186 190 196 184 183 202 188 192 208 213 243 239 223 238 250 264 242 226 225 248 245 243 249 276 292
227 192 188 168 151 202 218 200 155 167 177 264 104 92 115 99 82 107 99 71 339 68 270 253 157 171 280 273 307 149 181 194 195 192 189 189 180 178 177 177 178 178 177 183 178 179 182 185 184 187 176 172 186 182 180 179 179 187 186 191 186 196 192 192 191 188 199 198 199 211 225 226 255 255 266 269 276 251 236 229 252 257 271 265 278 281
223 95 121 138 186 211 188 192 163 170 174 109 105 89 35 50 42 28 64 102 54 355 255 219 202 145 272 256 196 158 208 188 181 202 199 196 181 177 177 175 177 179 181 183 181 182 185 182 175 160 174 184 178 180 171 174 180 182 184 189 188 200 193 189 192 186 202 204 204 218 225 224 236 251 254 280 296 284 267 241 251 252 243 257 251 235
264 119 142 225 175 119 121 112 160 173 149 105 63 123 78 350 15 30 345 32 96 272 262 222 193 152 185 288 264 223 177 167 174 188 191 186 186 181 180 181 180 179 180 175 171 178 162 145 162 167 174 176 180 169 175 178 176 180 186 180 193 202 201 197 193 186 201 201 214 221 223 227 227 232 243 246 249 260 251 240 253 257 256 251 245 235
270 228 217 341 167 155 139 106 60 112 71 81 76 48 120 276 29 335 7 345 219 210 253 111 122 50 240 228 225 236 214 187 183 184 186 182 185 183 178 181 181 178 172 170 175 166 168 172 171 181 181 173 173 181 181 181 178 183 179 184 187 208 207 200 193 192 200 201 214 218 229 232 233 238 243 247 241 238 232 238 249 251 240 242 238 241
282 249 210 237 184 177 130 138 146 24 253 114 146 131 90 83 63 243 273 238 304 287 266 192 178 200 249 289 230 222 214 193 188 192 180 175 179 182 179 177 175 175 175 174 172 172 174 178 181 180 179 182 181 182 183 180 181 182 185 188 190 209 200 203 198 200 203 210 211 213 219 226 227 239 242 245 231 238 227 215 222 229 218 211 213 224
61 4 261 160 224 136 141 167 182 173 166 192 162 138 171 149 162 207 198 201 211 217 307 10 115 237 138 251 207 200 209 194 184 186 180 178 178 177 172 171 169 172 176 171 173 175 178 181 179 181 182 181 182 182 182 183 186 182 188 190 200 204 208 202 207 207 211 217 218 216 219 224 225 235 240 242 236 237 235 231 214 220 226 220 233 220
181 194 223 192 190 152 172 198 166 120 96 109 166 92 85 222 134 167 206 167 236 213 44 163 198 190 183 261 281 199 125 146 170 178 162 171 170 166 158 162 171 176 178 176 176 179 181 180 180 180 181 184 184 182 181 187 184 187 193 195 200 202 202 201 205 209 210 217 215 216 220 226 231 239 241 247 254 254 243 245 222 231 219 216 226 239
185 248 254 196 186 170 186 141 176 143 143 247 107 227 222 156 131 97 356 26 79 55 253 201 323 301 295 354 11 98 126 176 165 160 161 169 168 167 171 165 171 177 177 176 179 178 181 179 184 184 182 182 185 182 188 189 188 190 191 195 204 211 205 205 206 207 208 214 212 224 221 227 232 235 234 235 240 241 242 237 240 232 236 237 230 239
144 235 286 116 163 214 181 151 160 218 131 129 171 228 73 130 116 136 225 340 45 159 255 214 217 275 58 252 308 102 116 157 153 163 165 163 159 172 177 167 173 178 181 182 180 180 178 181 185 185 183 185 186 189 191 194 192 192 192 194 200 202 208 213 208 208 206 207 215 221 224 228 229 234 244 239 240 239 245 251 247 257 266 247 239 230
128 33 299 192 93 1 123 97 45 268 152 152 209 161 137 157 265 309 89 250 61 259 263 291 200 256 155 196 143 155 138 156 146 139 135 152 170 175 177 176 179 175 170 174 178 179 181 183 186 185 188 189 189 191 190 195 194 193 199 200 197 202 208 207 206 208 209 204 210 212 217 219 227 230 236 240 239 243 244 248 245 245 246 259 260 253
158 141 274 190 136 197 353 129 187 196 261 267 65 150 160 98 147 144 195 178 123 232 81 297 109 237 211 195 182 174 159 157 144 151 162 171 176 173 176 172 170 172 178 179 181 183 184 187 187 188 188 187 188 189 194 193 194 200 199 199 206 212 210 210 211 208 209 209 208 218 219 225 222 226 227 231 230 239 241 247 249 251 256 247 252 253
189 115 177 251 143 127 182 215 194 171 190 237 227 277 202 253 213 130 101 151 177 170 184 175 254 273 252 192 174 178 173 162 157 164 165 174 179 179 173 169 172 176 179 183 179 180 186 188 191 193 189 193 192 191 188 190 197 200 197 202 204 202 206 209 213 206 214 202 210 211 218 221 219 226 227 231 229 233 240 244 248 246 241 255 253 249
104 158 163 201 122 171 209 216 188 187 183 188 182 202 190 193 197 149 264 337 130 98 226 140 236 263 264 179 176 175 179 163 164 154 167 170 172 174 173 171 173 180 187 181 179 180 186 188 194 189 188 195 190 194 193 200 197 200 199 205 203 205 207 208 210 211 210 206 206 210 219 223 219 222 223 228 235 238 241 244 242 242 248 239 246 226
94 160 115 176 180 190 190 214 214 202 190 188 184 213 189 167 106 103 157 261 4 246 119 156 149 268 237 180 171 171 173 170 167 155 164 170 171 176 178 180 183 180 180 182 180 183 183 188 191 188 188 191 196 196 197 196 199 202 203 202 203 202 213 208 210 207 203 203 207 214 218 218 221 219 224 227 235 237 241 243 246 239 240 247 246 235
331 119 150 230 332 294 182 205 238 220 200 208 235 197 134 179 197 186 182 184 153 289 111 336 176 251 287 183 168 170 173 170 169 162 164 174 176 173 174 179 179 179 186 180 179 177 178 184 193 187 188 200 203 202 200 199 201 204 204 203 201 208 213 211 209 199 199 207 214 215 211 217 220 219 224 227 231 234 237 237 239 232 233 240 244 251
337 304 128 136 57 4 354 347 322 229 185 193 197 219 191 210 203 177 105 65 86 241 161 119 216 286 279 226 146 152 157 167 178 182 166 169 178 159 171 178 178 174 170 174 176 177 177 184 192 196 194 200 203 203 200 200 199 202 205 204 205 212 212 212 202 193 201 206 213 211 210 218 211 217 223 228 231 235 239 240 241 237 237 242 252 247
220 234 102 138 155 155 176 198 230 223 195 233 207 204 190 172 168 115 227 321 166 274 124 122 223 254 281 24 141 158 168 176 181 180 189 175 167 156 158 163 168 167 174 175 176 169 183 194 197 198 199 199 203 199 198 199 202 202 205 208 209 209 207 213 197 197 197 205 210 211 210 213 207 216 222 226 231 235 237 239 241 244 249 239 257 261
312 328 54 225 170 177 196 189 220 144 133 177 212 196 221 153 152 119 112 95 216 220 212 228 172 223 214 167 142 168 170 167 177 160 154 132 137 149 153 155 164 170 173 173 174 180 175 190 203 207 205 203 201 200 194 197 200 204 204 214 213 211 207 205 192 195 197 202 207 210 211 207 213 217 224 228 232 237 240 239 242 239 244 221 236 239
22 358 352 353 308 231 188 186 171 167 196 200 157 176 172 218 148 121 138 209 169 114 267 273 218 160 221 192 178 165 171 168 167 162 155 151 162 161 164 145 140 153 165 159 159 154 166 186 203 199 195 192 197 200 200 198 201 199 200 211 213 211 209 195 183 190 197 194 203 209 221 219 223 224 229 236 242 246 245 245 244 241 240 229 238 240
342 281 328 352 329 311 274 208 167 148 207 260 189 187 185 180 179 166 194 209 154 180 205 232 192 181 205 194 183 169 167 170 169 172 170 164 159 152 146 142 149 154 156 159 162 160 161 173 179 175 170 175 179 187 191 200 203 205 204 216 216 203 203 181 173 178 173 172 196 220 225 237 240 248 258 251 249 249 249 246 247 247 245 239 242 243
335 252 331 333 324 306 278 220 198 159 180 212 222 184 194 195 211 201 211 189 172 207 200 184 178 197 189 189 196 180 170 165 169 160 150 151 160 164 160 151 149 153 159 161 165 168 168 163 161 153 147 150 155 161 180 191 195 195 185 171 143 125 121 123 136 136 145 176 214 234 238 238 241 236 232 237 241 245 247 249 250 251 252 253 256 269
4 292 335 342 349 317 352 12 343 124 147 236 293 335 218 210 216 215 213 173 187 300 254 175 162 224 248 183 184 180 160 142 135 152 163 163 160 163 163 158 156 160 162 165 164 167 163 154 145 138 137 143 138 149 154 143 125 108 92 92 90 95 113 112 115 110 134 190 231 245 253 254 283 316 319 319 313 316 314 303 308 307 306 314 309 282
355 298 330 356 358 313 330 2 323 73 89 82 22 23 10 318 258 235 219 198 172 194 184 154 165 215 248 199 165 132 153 154 160 165 160 166 167 165 167 166 164 166 167 167 165 157 156 150 145 139 141 138 134 120 114 105 101 94 100 104 105 112 103 98 108 108 72 37 31 37 42 43 48 48 32 24 7 346 327 329 340 333 317 311 306 297
337 331 334 346 335 275 281 353 310 327 47 14 335 8 343 284 257 251 259 177 190 160 145 158 206 211 194 167 157 175 173 174 164 166 169 171 173 172 172 172 174 173 175 163 162 162 158 156 153 146 142 131 122 114 115 113 95 95 104 102 119 115 90 67 56 58 60 57 50 43 47 48 52 47 38 27 27 27 33 36 31 18 10 354 332 336
311 321 307 331 277 279 303 316 333 54 101 221 228 49 337 287 289 15 298 252 269 142 189 183 199 192 130 166 167 176 176 179 174 181 171 170 176 182 180 175 175 177 173 165 162 159 157 147 141 134 133 128 125 123 124 117 120 111 89 78 62 67 70 77 71 66 59 53 49 51 55 57 55 48 30 19 21 23 30 31 19 358 351 350 351 349
303 311 302 288 268 281 314 349 21 167 212 231 3 55 3 355 14 314 279 26 102 322 283 226 208 155 179 177 174 174 182 183 174 173 182 175 173 178 182 179 176 174 169 161 157 152 152 146 133 126 123 126 128 130 121 95 85 89 85 86 83 78 78 72 71 60 54 51 44 48 47 50 49 39 22 26 29 30 30 15 354 351 333 341 340 333
301 323 308 302 246 346 359 34 107 237 240 325 289 2 3 15 18 13 348 335 26 28 359 262 228 193 176 179 184 176 176 178 179 177 179 187 179 176 172 175 179 172 169 168 159 155 149 146 142 136 136 137 122 100 94 101 100 92 90 85 84 78 73 72 66 57 47 45 38 38 32 34 28 17 9 16 18 25 12 356 349 342 335 349 346 333
283 311 276 300 236 231 204 169 226 295 340 9 3 360 356 328 319 22 261 296 43 32 16 359 323 269 188 180 185 159 119 107 142 203 211 193 190 185 172 177 173 177 166 157 149 146 141 138 133 133 122 108 106 106 106 102 95 92 85 77 75 76 69 64 58 46 43 40 30 29 24 24 21 11 11 14 23 17 5 354 346 342 347 360 348 337
157 227 267 61 285 145 240 309 340 2 243 288 297 294 276 240 243 231 205 276 19 21 11 355 345 321 298 116 140 146 123 104 147 206 219 203 199 183 192 164 151 134 124 119 113 117 120 112 104 102 109 105 99 105 108 101 95 89 82 78 73 73 65 61 55 46 49 41 29 26 21 16 18 22 24 29 24 7 355 347 343 345 338 358 344 336
200 168 53 150 255 307 61 174 226 198 235 233 321 314 310 309 292 260 154 306 353 8 2 350 333 326 305 189 161 149 128 147 197 207 222 176 157 148 130 121 121 122 127 131 132 126 118 114 112 110 103 101 100 102 101 99 93 87 85 80 79 76 70 61 51 43 42 33 23 23 21 19 26 33 30 27 10 3 358 344 323 315 342 353 354 343
55 42 23 341 275 237 168 148 236 213 42 333 318 316 311 313 306 60 329 260 341 342 345 339 328 326 323 282 225 159 157 178 194 218 194 152 142 144 137 132 126 123 118 112 108 114 115 116 108 101 102 103 108 107 99 94 88 86 86 80 74 68 63 60 60 51 43 33 27 24 26 28 32 30 28 12 358 352 340 330 349 355 357 0 6 1
10 342 71 265 282 293 260 220 318 350 338 327 324 314 315 309 69 59 223 275 319 322 328 329 323 323 344 329 283 229 195 192 181 142 134 125 113 100 100 112 120 125 126 122 122 118 110 104 104 107 107 109 111 104 98 94 90 86 87 90 86 87 88 77 54 43 37 30 29 29 30 28 28 19 13 9 352 348 2 9 11 14 19 15 13 19
356 110 311 61 299 302 264 172 197 147 278 325 323 322 325 57 27 227 266 305 309 315 316 323 322 340 335 335 343 310 288 66 107 123 128 127 122 121 119 116 108 98 97 107 115 112 107 103 101 99 94 97 106 105 102 97 93 98 98 84 76 77 74 59 49 41 33 30 30 30 27 21 11 14 10 6 14 15 20 25 35 34 27 23 24 22
199 88 249 241 283 292 348 82 251 187 319 352 330 349 17 71 331 275 302 306 320 309 318 322 339 337 345 327 347 351 290 115 129 132 132 131 126 129 129 128 126 126 126 120 111 111 112 107 103 100 104 100 97 98 100 95 92 88 82 84 105 99 69 57 49 41 37 36 35 27 20 11 13 10 12 14 17 33 38 35 37 31 28 24 21 19
100 108 271 280 63 274 320 332 193 280 286 338 11 53 337 78 264 307 313 322 326 333 329 330 335 340 336 330 325 18 299 126 115 124 120 119 117 119 119 117 115 114 110 107 113 117 109 106 105 102 96 94 88 86 87 92 92 87 85 89 104 79 64 54 46 44 43 40 32 23 18 10 8 13 16 21 27 44 50 40 37 37 29 24 25 18
336 223 182 202 225 232 241 277 302 191 359 329 340 34 294 286 330 324 341 324 327 334 336 328 331 332 337 323 322 53 345 245 148 147 137 140 134 132 131 131 129 127 125 124 122 117 111 114 112 107 95 87 87 86 87 89 95 91 85 76 78 72 68 58 50 49 46 38 26 21 12 8 9 15 19 18 41 57 51 45 39 40 19 23 24 18
18 324 304 267 238 289 291 262 264 309 348 327 311 328 334 321 338 354 354 350 336 333 332 331 322 327 327 319 330 56 55 358 324 150 131 133 129 124 120 118 116 116 117 117 117 114 113 110 107 104 99 86 87 87 83 87 95 97 106 89 80 75 70 63 57 50 42 27 21 8 9 10 7 17 23 25 49 72 75 70 53 52 25 28 21 12
219 263 329 101 286 36 300 325 345 328 329 308 304 284 306 333 332 344 345 342 335 334 333 326 325 320 326 299 73 100 77 47 356 304 155 134 133 132 129 126 127 129 129 123 126 120 114 112 106 104 102 93 78 83 84 86 86 101 99 85 79 73 68 66 61 54 41 12 358 354 1 16 22 26 24 33 51 67 70 62 74 60 45 35 20 7
321 9 351 251 255 174 248 300 299 287 284 274 222 357 341 334 330 344 336 325 334 339 332 325 323 323 336 301 146 109 108 89 57 327 300 150 132 131 130 130 128 122 118 121 122 112 108 107 108 104 97 93 88 87 85 85 87 86 84 78 74 71 65 60 55 48 22 354 327 349 11 22 28 41 40 38 52 56 41 41 55 62 55 53 28 26
264 338 284 321 318 289 288 289 294 308 322 114 358 331 322 324 331 330 339 345 348 354 345 332 327 319 319 308 270 125 115 100 96 43 325 298 129 127 129 126 122 121 123 115 111 108 109 109 102 100 98 99 96 90 86 86 86 84 82 78 71 69 65 51 38 32 15 3 7 8 20 36 33 36 55 42 38 47 90 79 63 55 360 321 133 74
311 275 270 346 316 310 274 288 341 340 320 316 318 322 322 326 329 327 333 343 349 352 355 338 325 330 326 342 281 137 128 123 108 102 87 303 304 123 120 119 118 114 107 105 103 103 101 101 106 105 103 103 100 92 89 86 83 81 79 74 70 69 64 53 43 38 28 27 35 26 30 24 16 12 38 53 39 26 5 7 12 40 55 339 335 353
227 258 274 252 208 265 276 266 238 269 281 252 287 302 312 314 325 332 337 338 337 341 349 340 326 332 354 358 333 115 125 126 121 118 118 140 240 119 121 122 117 111 109 110 105 101 102 103 103 102 100 101 93 87 83 79 79 73 63 71 70 72 72 69 54 51 42 42 32 23 27 22 16 8 37 42 34 24 21 339 335 332 333 338 325 359